Location: Peebles
(55.6412°N, 3.1714°W)
Time: 23:11:45
(UTC+00:00)

PCSat - Visible Passes

Search period start: 02 December 2022 00:00
Search period end: 12 December 2022 00:00
Orbit: 785 x 793 km, 67.1° (Epoch: 02 December)

Date Brightness Start Highest point End Pass type
(mag) Time Alt. Az. Time Alt. Az. Time Alt. Az.
02 Dec 11.4 04:18:28 22° SSE 04:18:28 22° SSE 04:20:16 10° SSE visible
02 Dec 11.3 05:59:13 15° SW 05:59:13 15° SW 06:00:56 10° SSW visible
03 Dec 12.2 03:48:58 11° SE 03:48:58 11° SE 03:49:06 10° SE visible
03 Dec 11.6 05:29:42 14° SSW 05:29:42 14° SSW 05:30:36 10° SSW visible
04 Dec 11.9 19:38:29 10° SSW 19:39:03 13° SSW 19:39:03 13° SSW visible
05 Dec 11.2 19:07:34 10° S 19:09:29 21° S 19:09:29 21° S visible
06 Dec 10.7 18:36:45 10° S 18:39:51 27° SSE 18:39:51 27° SSE visible
06 Dec 11.8 20:19:18 10° SW 20:20:35 18° WSW 20:20:35 18° WSW visible
07 Dec 10.6 18:06:06 10° SSE 18:10:07 26° ESE 18:10:07 26° ESE visible
07 Dec 11.0 19:48:01 10° SW 19:50:50 32° SW 19:50:50 32° SW visible
08 Dec 10.8 17:35:36 10° SSE 17:39:33 21° ESE 17:40:18 20° E visible
08 Dec 10.0 19:16:48 10° SW 19:21:02 56° SSW 19:21:02 56° SSW visible
08 Dec 12.3 21:01:12 10° W 21:01:45 13° W 21:01:45 13° W visible
09 Dec 11.2 17:05:22 10° SE 17:08:35 16° ESE 17:10:24 14° E visible
09 Dec 9.4 18:45:41 10° SSW 18:51:04 69° SE 18:51:08 69° ESE visible
09 Dec 11.7 20:29:42 10° W 20:31:51 22° W 20:31:51 22° W visible
10 Dec 11.5 16:35:37 10° SE 16:37:40 12° ESE 16:39:43 10° E visible
10 Dec 9.7 18:14:39 10° SSW 18:19:55 55° ESE 18:21:09 45° E visible
10 Dec 10.9 19:58:14 10° WSW 20:01:53 36° WNW 20:01:53 36° WNW visible
11 Dec 10.0 17:43:43 10° S 17:48:49 43° ESE 17:51:08 28° ENE visible
11 Dec 10.1 19:26:50 10° WSW 19:31:51 54° NW 19:31:51 54° NW visible
11 Dec 12.4 21:12:01 10° WNW 21:12:33 12° WNW 21:12:33 12° WNW visible
